Regional Weather Roundup
Issued by NWS Portland, ME

Home | Current Version | Previous Version | Text Only | Print | Product List | Glossary On
Versions: 1 2 3 4 5 6 7 8 9 10 11 12 13 14 15 16 17 18 19 20 21 22 23 24 25 26 27 28 29 30 31 32 33 34 35 36 37 38 39 40 41 42 43 44 45 46 47 48 49 50
000
ASUS41 KGYX 231505
RWRGYX
WEATHER ROUNDUP FOR MAINE AND NEW HAMPSHIRE
NATIONAL WEATHER SERVICE GRAY ME
1100 AM EDT WED JUL 23 2014

MEZ002-005-006-010-012-015-018-020-021-024-026-027-029-231600-
MAINE

CITY           SKY/WX    TMP DP  RH WIND       PRES   REMARKS
PORTLAND       MOSUNNY   85  71  63 SW14      29.82F HX  90
SANFORD        SUNNY     86  70  58 SW8       29.84F HX  90
BAR HARBOR     SUNNY     75  70  83 SW12      29.81F
WISCASSET      SUNNY     81  70  69 S7        29.83F
ROCKLAND       SUNNY     77  70  78 S6        29.80F
FRYEBURG       SUNNY     85  70  60 SW9G17    29.82F
LEWISTONAUBURN SUNNY     84  72  65 SW8       29.82F
AUGUSTA        SUNNY     82  70  66 VRB7      29.81F
WATERVILLE     SUNNY     82  73  74 SW6       29.76F
BANGOR         MOSUNNY   83  70  64 S12       29.79F
GREENVILLE       N/A     80  66  62 VRB7      29.80F
MILLINOCKET    SUNNY     84  68  58 SW8       29.76F
HOULTON        SUNNY     83  66  56 SW13G22   29.72F
PRESQUE ISLE   PTSUNNY   82  63  51 SW13G25   29.70F
FRENCHVILLE    CLOUDY    77  65  66 SW10G17   29.67F
CARIBOU        PTSUNNY   82  66  58 SW16G26   29.68F
$$

NHZ002-005-008-009-011-012-014-231600-
NEW HAMPSHIRE

CITY           SKY/WX    TMP DP  RH WIND       PRES   REMARKS
PORTSMOUTH     MOSUNNY   85  72  65 SW10      29.84F HX  90
ROCHESTER      SUNNY     86  71  60 VRB7      29.84F HX  91
NASHUA         MOSUNNY   87  71  58 VRB7      29.87F HX  92
MANCHESTER     MOSUNNY   85  70  60 SW10      29.84F
CONCORD        SUNNY     86  70  58 SW12      29.85F HX  90
LACONIA        SUNNY     82  70  65 SW10      29.83F
PLYMOUTH       FAIR      83  69  61 W6        29.82F
BERLIN         SUNNY     85  68  56 SW8       29.83F
WHITEFIELD     SUNNY     83  68  60 W9        29.83F
JAFFREY        MOSUNNY   80  69  69 S10       29.91F
LEBANON        SUNNY     85  71  63 SW9       29.83F HX  90
MT WASHINGTON  FOG       57  57 100 W25         N/A  VSB 1/16
$$

VTZ005-007-008-231600-
VERMONT

CITY           SKY/WX    TMP DP  RH WIND       PRES   REMARKS
ST JOHNSBURY     N/A     78  69  73 MISG      29.79F
MONTPELIER     PTSUNNY   81  68  64 SW10      29.87F
BURLINGTON     PTSUNNY   83  70  64 S18G25    29.78F
$$

MAZ007-012-024-CTZ003-RIZ002-NYZ038-NYZ072-231600-
SOUTHERN NEW ENGLAND AND NY

CITY           SKY/WX    TMP DP  RH WIND       PRES   REMARKS
BOSTON         MOSUNNY   85  69  58 SW13      29.87F
WORCESTER      SUNNY     79  68  69 SW12      29.94F
NANTUCKET      MOSUNNY   73  68  84 SW16G22   29.98F
PROVIDENCE     PTSUNNY   82  70  66 SW8       29.93F
HARTFORD       MOSUNNY   85  70  60 S10G17    29.89F
ALBANY         MOSUNNY   83  71  67 S10       29.86F
NEW YORK CITY  MOSUNNY   83  68  60 SW8       29.93F
$$

ANZ081-ANZ082-ANZ150-NHZ014-MEZ023>029-231600-
COASTAL MARINE OBSERVATIONS

STATION/POSITION TIME  TEMP    WIND        PRES    WAVE
                       AIR SEA DIR/SP/G            HT/PER
                 (UTC) (F)     (DEG/KT/KT) (MB)    (FT/S)
MOUNT DESERT ROC 1500   60                 1010.3F
MATINICUS ROCK   1400          220/ 19/ 19 1010.4F
PORTLAND WX BUOY 1500   67 63  190/ 14/ 16 1009.8F   3/ 6
WELLS            1500   75 57  160/  5/  9 1009.5F
ISLE OF SHOALS   1400   74     220/ 14/ 14 1010.9F
JEFFREYS LEDGE   1400      65                N/A     3/10
CASHES LEDGE BUO 1500   69 67  VRB 16/ 19  1010.4F   4/ 5
$$

.............KEY..............
   WCI - WIND CHILL
   TC  - TEMPERATURE IN CELSIUS
   VSB - VISIBILITY IN MILES
   HX  - HEAT INDEX
   FAIR- INDICATES FEW OR NO CLOUDS BELOW 12,000 FT, WITH NO
         SIGNIFICANT WEATHER AND/OR OBSTRUCTIONS TO VISIBILITY.




USA.gov is the U.S. government's official web portal to all federal, state and local government web resources and services.